Date_(UTC),Time_(UTC),Sample_ID,Latitude_(decimal_degrees),Longitude_(decimal_degrees),SST_(Celsius),Salinity_(PSU),pH_(total)_at_25C,Total_Alkalinity_(micromoles/liter)
8/27/2012, 6:10,2,73.037156,-157.4002027,2.715,24.515,7.689,-999
8/27/2012, 7:16,3,73.3070342,-157.3540598,3.692,24.706,7.686,-999
8/27/2012, 8:15,4,73.3766088,-157.369058,3.701,24.799,7.677,-999
8/27/2012, 10:31,6,73.8204427,-157.4937408,2.718,24.456,7.654,-999
8/27/2012, 12:59,8,74.2645373,-157.7433723,0.831,24.734,7.642,-999
8/27/2012, 18:05,9,74.3905385,-158.1267027,0.725,25.04,7.64,-999
8/27/2012, 19:30,10,74.28483,-157.6905125,0.915,24.979,7.653,-999
8/27/2012, 20:29,11,74.3663837,-157.4084105,1.225,24.666,7.664,-999
8/27/2012, 21:30,12,74.2533727,-157.7966242,1.078,24.738,7.644,-999
8/27/2012, 22:30,13,74.3384618,-158.1597595,0.749,25.016,7.642,-999
8/27/2012, 23:33,14,74.5410562,-158.583034,0.811,24.952,7.641,-999
8/28/2012, 0:29,15,74.7547357,-158.7838977,0.817,24.873,7.642,-999
8/28/2012, 1:30,16,74.9708183,-158.9505593,0.628,25.022,-999,1736.7
8/28/2012, 3:30,18,75.3770637,-159.3513372,0.022,25.179,7.646,-999
8/28/2012, 4:30,19,75.617333,-159.1615988,-0.068,24.982,7.64,-999
8/28/2012, 5:30,20,75.8172972,-159.0013773,-0.039,24.917,7.639,-999
8/28/2012, 6:30,21,75.9984175,-158.8495687,-0.275,24.793,7.634,-999
8/28/2012, 7:30,22,76.2380342,-158.6416255,-0.143,24.94,7.635,-999
8/28/2012, 8:30,23,76.4795432,-158.4259623,-0.133,25.101,7.64,-999
8/28/2012, 9:30,24,76.6944012,-158.3443948,-0.167,25.444,7.644,-999
8/28/2012, 10:30,25,76.9274595,-158.600898,-0.1,25.69,7.645,1792.3
8/28/2012, 11:30,26,77.1581038,-158.8611993,-0.07,25.69,7.641,1850.8
8/28/2012, 12:30,27,77.3886225,-159.1314852,-0.163,25.558,7.643,1788
8/28/2012, 13:30,28,77.6190252,-159.4117015,-0.167,25.924,7.649,-999
8/28/2012, 14:31,29,77.8527273,-159.7079998,-0.204,25.796,7.641,1797.3
8/28/2012, 15:30,30,78.0835497,-159.9189965,-0.175,25.917,7.647,1783.9
8/28/2012, 16:30,31,78.323009,-159.882879,-0.23,26.629,-999,-999
8/28/2012, 17:30,32,78.4267418,-160.1864608,-0.211,26.45,-999,1803.8
8/28/2012, 18:30,33,78.6072477,-161.0279932,-0.412,27.051,7.66,1835.9
8/28/2012, 19:30,34,78.7801753,-161.9670007,-0.404,26.738,7.657,1926.9
8/28/2012, 23:30,35,79.7239003,-161.286974,-0.843,28.517,7.685,1853.4
8/28/2012, 21:30,36,79.2440768,-161.8642558,-0.781,27.611,-999,1978.5
8/28/2012, 23:30,39,79.7239003,-161.286974,-0.843,28.517,7.684,-999
8/29/2012, 1:34,40,80.080171,-160.8281587,-0.845,28.164,7.678,-999
8/29/2012, 3:30,42,80.3519053,-160.4927518,-1.078,28.603,-999,2022.5
8/29/2012, 4:35,43,80.459202,-160.3447592,-1.037,28.517,7.685,3084.5
8/29/2012, 5:30,44,80.5630255,-160.1783735,-1.087,28.517,7.686,2015
8/29/2012, 6:30,45,80.6897388,-160.0147255,-0.966,28.573,7.688,-999
8/29/2012, 7:30,46,80.8224732,-159.826977,-0.991,28.557,7.685,1908.5
8/29/2012, 8:30,47,80.920336,-159.6804227,-1.006,28.547,7.686,2000.4
8/29/2012, 9:30,48,81.0322247,-159.5113125,-0.989,28.511,7.687,2011.8
8/29/2012, 10:30,49,81.144468,-159.335445,-1.071,28.493,7.69,-999
8/29/2012, 11:30,50,81.2586675,-159.1507835,-1.103,28.49,7.693,2015.5
8/29/2012, 12:30,51,81.3675545,-158.9778162,-1.154,28.439,7.692,2010.4
8/29/2012, 13:29,52,81.463141,-159.1187558,-1.253,28.446,7.695,2009.5
8/29/2012, 14:29,53,81.553648,-159.501813,-1.334,28.404,-999,1910.1
8/29/2012, 15:29,54,81.642889,-159.8898048,-1.361,28.395,-999,2006.5
8/29/2012, 16:30,55,81.7315107,-160.307199,-1.401,28.353,7.706,1899.7
8/29/2012, 17:30,56,81.8085168,-160.6482065,-1.423,28.271,7.706,-999
8/29/2012, 18:30,57,81.8855983,-160.98657,-1.426,28.248,7.707,-999
8/29/2012, 19:30,58,81.9276723,-161.7313437,-1.436,28.203,7.708,1882.5
8/29/2012, 20:30,59,81.9663047,-162.4678265,-1.448,28.236,7.709,1870.4
8/29/2012, 21:31,60,82.0009742,-163.1820605,-1.441,28.292,7.709,1888.5
8/29/2012, 22:30,61,82.0358922,-163.8953067,-1.45,28.373,7.709,-999
8/29/2012, 23:30,62,82.0672767,-164.6080967,-1.454,28.366,7.71,-999
8/30/2012, 1:30,64,82.1274328,-166.0665118,-1.44,28.442,7.715,-999
8/30/2012, 2:29,65,82.1541965,-166.7530325,-1.43,28.413,7.71,1904.4
8/30/2012, 4:32,67,82.2076497,-168.2304163,-1.467,28.466,7.717,2007.9
8/30/2012, 5:30,68,82.2520435,-169.5367617,-1.464,28.603,7.718,2012.8
8/30/2012, 6:30,69,82.2520435,-169.5367617,-1.464,28.603,7.718,-999
8/30/2012, 7:45,70,82.2741985,-170.4204663,-1.451,28.542,7.714,1876
8/30/2012, 8:45,71,82.2999845,-171.2618962,-1.438,28.471,7.709,1872.6
8/30/2012, 9:45,72,82.319115,-172.0637152,-1.43,28.535,7.708,1870
8/30/2012, 10:45,73,82.340287,-172.845445,-1.44,28.402,7.695,1989.8
8/30/2012, 11:45,74,82.3531727,-173.7106633,-1.438,28.419,7.696,2007.4
8/30/2012, 12:45,75,82.3680868,-174.4664212,-1.442,28.444,7.697,2002.4
8/30/2012, 13:46,76,82.3802502,-175.2211892,-1.441,28.388,7.699,1993.1
8/30/2012, 14:45,77,82.391646,-175.9580253,-1.448,28.362,7.703,1961.6
8/30/2012, 15:45,78,82.3413613,-175.7814427,-1.455,28.361,7.706,1993.6
8/30/2012, 16:45,79,82.2495725,-175.4564463,-1.435,28.453,7.696,-999
8/30/2012, 17:45,80,82.1677947,-175.1008017,-1.433,28.466,7.697,-999
8/30/2012, 18:45,81,82.0734827,-174.7319822,-1.416,28.512,7.701,1893.5
8/30/2012, 19:45,82,81.9833643,-174.3828992,-1.422,28.526,7.705,1865.3
8/30/2012, 20:45,83,81.88832,-174.0465263,-1.407,28.423,7.696,1865.1
8/30/2012, 21:45,84,81.7899373,-173.7044807,-1.362,28.51,7.7,1993.4
8/30/2012, 22:45,85,81.6865178,-173.3471573,-1.349,28.478,7.702,1987.7
8/31/2012, 0:45,87,81.4878555,-172.6622722,-1.265,28.392,7.697,-999
8/31/2012, 1:45,88,81.5169345,-171.889965,-1.273,28.416,7.696,2051.4
8/31/2012, 2:45,89,81.5482685,-171.0162248,-1.31,28.411,7.699,1929.5
8/31/2012, 3:45,90,81.581784,-170.1427405,-1.316,28.4,7.696,2004.8
8/31/2012, 4:45,91,81.607109,-169.4292252,-1.325,28.456,7.69,1884.6
8/31/2012, 5:48,92,81.6324688,-168.5902218,-1.35,28.412,7.694,1997.1
8/31/2012, 6:45,93,81.653429,-167.8411287,-1.378,28.458,-999,1887.3
8/31/2012, 7:47,94,81.6759963,-166.9776645,-1.419,28.429,7.696,1898.7
8/31/2012, 8:45,95,81.6922155,-166.2251978,-1.442,28.39,7.698,2008.9
8/31/2012, 9:45,96,81.7227145,-165.4847498,-1.449,28.416,7.706,1998.7
8/31/2012, 10:45,97,81.7341822,-164.8297855,-1.441,28.404,7.707,1897.2
8/31/2012, 11:45,98,81.7424712,-164.1350708,-1.454,28.362,7.71,2012.8
8/31/2012, 12:45,99,81.7511818,-163.4741877,-1.44,28.335,7.707,-999
8/31/2012, 13:45,100,81.7567382,-162.813408,-1.46,28.258,7.707,1963.9
8/31/2012, 14:44,101,81.7373305,-162.5151482,-1.461,28.245,7.706,1990.6
8/31/2012, 15:45,102,81.66909,-163.0458105,-1.448,28.319,7.706,1893.4
8/31/2012, 16:45,103,81.5922,-163.5628723,-1.471,28.416,7.705,2000.2
8/31/2012, 17:45,104,81.5184312,-164.0616587,-1.455,28.437,7.706,1981.7
8/31/2012, 18:45,105,81.4428755,-164.6015927,-1.443,28.412,7.702,1885.3
8/31/2012, 19:47,106,81.3611292,-165.12913,-1.452,28.378,7.693,-999
8/31/2012, 20:45,107,81.2875128,-165.5985538,-1.357,28.434,-999,1881.9
8/31/2012, 21:45,108,81.2068162,-166.1055822,-1.347,28.516,7.69,1887.8
8/31/2012, 22:45,109,81.1251518,-166.6040162,-1.287,28.598,7.691,2007.9
8/31/2012, 23:45,110,81.0375587,-167.1149805,-1.246,28.594,7.688,1941.6
9/1/2012,0:48,111,80.9396832,-167.676821,-1.189,28.597,7.687,-999
9/1/2012,1:45,112,80.8259247,-168.3094253,-1.169,28.559,7.69,1918.9
9/1/2012,2:45,113,80.7315642,-168.8165757,-1.137,28.623,7.691,1903
9/1/2012,3:45,114,80.5729295,-168.7915605,-1.15,28.631,7.688,2014.7
9/1/2012,4:45,115,80.4494823,-168.5396725,-1.099,28.599,7.685,1941.6
9/1/2012,5:45,116,80.2695,-168.1253902,-1.077,28.534,7.685,-999
9/1/2012,6:45,117,80.0740382,-167.718276,-0.921,27.974,7.668,1872.8
9/1/2012,7:50,118,79.8647917,-167.3011677,-0.898,27.909,7.667,1874.4
9/1/2012,8:45,119,79.6884587,-166.9624917,-0.895,27.78,7.664,1854.4
9/1/2012,9:45,120,79.4949155,-166.6054303,-0.82,27.502,7.661,1890.4
9/1/2012,10:45,121,79.3005363,-166.2603203,-0.703,27.317,7.659,1946.7
9/1/2012,11:45,122,79.1035273,-165.9231102,-0.714,27.18,7.656,1948.3
9/1/2012,12:45,123,78.9147168,-165.6221498,-0.541,26.767,7.65,-999
9/1/2012,13:45,124,79.0629452,-165.4040103,-0.623,26.828,7.652,1930.3
9/1/2012,14:45,125,79.2507345,-165.1673678,-0.736,27.154,7.657,1942.3
9/1/2012,15:45,126,79.4389267,-164.9218975,-0.764,27.475,7.657,1843.8
9/1/2012,16:45,127,79.627885,-164.6658998,-0.849,27.462,7.662,-999
9/1/2012,17:45,128,79.8166128,-164.4016048,-0.901,27.749,7.665,1862.4
9/1/2012,18:35,129,79.9725065,-164.1742277,-0.974,28.174,7.672,1881.7
9/1/2012,19:45,130,80.1945057,-163.83938,-0.928,28.402,7.674,2000.2
9/1/2012,20:46,131,80.3754712,-163.5537563,-1.021,28.695,7.681,2000.7
9/1/2012,21:45,132,80.4795628,-163.3910568,-1.026,28.637,7.68,2031.8
9/1/2012,22:45,133,80.5842165,-163.1989392,-1.085,28.568,7.684,2013.2
9/1/2012,23:45,134,80.6941282,-163.0241187,-1.082,28.597,7.682,2006.6
9/2/2012,0:45,135,80.8437588,-162.7860553,-1.108,28.642,7.683,1953.2
9/2/2012,1:45,136,80.9413968,-162.586891,-1.239,28.613,7.688,1890.2
9/2/2012,2:45,137,81.0509133,-162.3836578,-1.271,28.545,7.687,1907.1
9/2/2012,3:44,138,81.1580045,-162.1839155,-1.336,28.457,7.691,1890.4
9/2/2012,4:45,139,81.26588,-161.9724578,-1.351,28.415,7.689,1986
9/2/2012,5:45,140,81.368384,-161.7760828,-1.37,28.41,7.697,1947.7
9/2/2012,6:45,141,81.4679217,-161.5559313,-1.38,28.432,7.697,1983.5
9/2/2012,7:45,142,81.5791072,-161.3371865,-1.406,28.372,7.696,1870.1
9/2/2012,8:45,143,81.6746725,-161.123377,-1.442,28.306,7.695,-999
9/2/2012,9:45,144,81.7825525,-161.090737,-1.46,28.279,7.703,1949.9
9/2/2012,10:45,145,81.8578102,-161.050363,-1.448,28.265,-999,1995.9
9/2/2012,12:45,147,82.0600013,-161.0557,-1.472,28.214,7.704,1890.6
9/2/2012,13:45,148,82.1532368,-161.043868,-1.477,28.236,7.708,1871.3
9/2/2012,14:45,149,82.2463337,-161.1248737,-1.491,28.344,7.715,1945.4
9/2/2012,15:45,150,82.2812853,-161.8760817,-1.485,28.374,7.711,-999
9/2/2012,16:46,151,82.3137363,-162.5575957,-1.483,28.352,7.71,1970.3
9/2/2012,17:45,152,82.3492205,-163.366701,-1.483,28.396,7.71,1944.6
9/2/2012,19:45,154,82.4127055,-164.8755613,-1.507,28.447,7.713,1916.6
9/2/2012,20:45,155,82.4405873,-165.6197192,-1.489,28.477,7.718,1878
9/2/2012,21:45,156,82.4688317,-166.3676647,-1.488,28.486,7.716,1891.2
9/2/2012,22:44,157,82.4965267,-167.1328648,-1.477,28.438,7.713,1868.5
9/2/2012,23:45,158,82.5240235,-168.0140098,-1.475,28.447,7.713,1858.6
9/3/2012,0:45,159,82.546818,-168.7562483,-1.498,28.498,7.719,1870.3
9/3/2012,1:45,160,82.5730343,-169.637659,-1.483,28.539,7.716,1947.5
9/3/2012,2:45,161,82.5935723,-170.4088975,-1.518,28.535,7.724,-999
9/3/2012,3:45,162,82.6045178,-171.2156755,-1.498,28.451,-999,1898.5
9/3/2012,4:45,163,82.6187613,-172.026079,-1.515,28.6,7.716,1882
9/3/2012,5:45,164,82.6407707,-172.830096,-1.495,28.562,7.703,1952.7
9/3/2012,6:47,165,82.6630797,-173.641675,-1.501,28.601,7.706,1997.1
9/3/2012,7:47,166,82.6691385,-174.44533,-1.483,28.375,7.693,-999
9/3/2012,8:45,167,82.6879875,-174.9481585,-1.507,28.368,7.693,1877.6
9/3/2012,9:45,168,82.6972148,-174.8702048,-1.479,28.298,7.692,1870.8
9/3/2012,10:45,169,82.7713298,-174.292154,-1.493,28.243,7.696,1863.9
9/3/2012,11:45,170,82.7883832,-173.5399403,-1.476,28.37,7.692,1886.1
9/3/2012,12:45,171,82.7874297,-172.7018668,-1.5,28.606,7.709,2000.2
9/3/2012,13:45,172,82.7849218,-171.8600665,-1.518,28.697,7.72,1998.7
9/3/2012,14:45,173,82.7843948,-171.0007387,-1.504,28.655,7.721,2000.8
9/3/2012,15:45,174,82.7807662,-170.2201847,-1.498,28.602,7.72,1992.4
9/3/2012,16:45,175,82.7744588,-169.4117942,-1.49,28.613,7.719,1885.8
9/3/2012,17:48,176,82.7669652,-168.5281067,-1.495,28.653,7.719,1915.6
9/3/2012,18:45,177,82.7588333,-167.7191332,-1.513,28.864,7.728,1947.3
9/3/2012,19:45,178,82.7518883,-166.9522493,-1.513,28.864,7.724,1991
9/3/2012,20:47,179,82.7427118,-166.4624403,-1.513,28.694,7.726,1919.5
9/3/2012,21:45,180,82.7314703,-165.69569,-1.489,28.571,7.725,1992.5
9/3/2012,22:45,181,82.7232952,-165.0896303,-1.517,28.607,-999,1918.1
9/3/2012,23:45,182,82.7583698,-164.5087205,-1.486,28.43,7.719,1884.1
9/4/2012,0:45,183,82.8488922,-164.3430845,-1.507,28.469,7.717,1873.3
9/4/2012,1:45,184,82.9395997,-164.7581447,-1.522,28.603,7.725,1890.4
9/4/2012,2:45,185,83.023288,-165.1440242,-1.529,28.672,-999,1892.5
9/4/2012,3:45,186,83.1045273,-165.5090505,-1.509,28.775,7.726,2002.8
9/4/2012,4:45,187,83.1869735,-165.942015,-1.513,28.738,7.728,1911.8
9/4/2012,5:45,188,83.2700743,-166.3925172,-1.518,28.874,-999,1964.5
9/4/2012,6:45,189,83.3275065,-166.3910643,-1.519,28.915,7.73,1943.6
9/4/2012,7:45,190,83.3623217,-165.6446328,-1.532,28.959,7.732,2027.9
9/4/2012,8:45,191,83.3891938,-165.0491213,-1.514,28.391,7.739,-999
9/4/2012,9:46,192,83.4146717,-164.4717225,-1.535,28.889,-999,1920.9
9/4/2012,10:45,193,83.4401253,-163.8695565,-1.521,28.958,-999,1928.2
9/4/2012,11:45,194,83.4634508,-163.30976,-1.534,28.878,-999,1931.1
9/4/2012,12:45,195,83.489499,-162.6572063,-1.514,28.86,7.735,1933.8
9/4/2012,13:45,196,83.4964592,-162.102085,-1.514,28.885,7.732,1942.4
9/4/2012,14:45,197,83.4189963,-162.1614005,-1.511,28.771,7.73,1951
9/4/2012,15:45,198,83.3532683,-162.1554522,-1.506,28.717,7.727,2000.7
9/4/2012,16:44,199,83.3133912,-162.1431243,-1.493,28.704,7.726,2011.3
9/4/2012,19:45,200,83.253093,-162.182076,-1.503,28.664,-999,1889.6
9/4/2012,21:45,202,83.0767343,-162.1883715,-1.495,28.5,7.721,-999
9/4/2012,23:45,204,82.902839,-162.2150622,-1.477,28.326,-999,1984.4
9/5/2012,0:45,205,82.8570587,-162.3075983,-1.481,28.149,-999,1859.4
9/5/2012,1:45,206,82.8446667,-162.3247983,-1.491,28.296,-999,1853.9
9/5/2012,2:45,207,82.7623912,-162.2190988,-1.489,28.296,-999,-999
9/5/2012,3:45,208,82.6762678,-162.2217605,-1.495,28.43,-999,1882.5
9/5/2012,4:45,209,82.6503857,-162.841754,-1.495,28.466,-999,1881.6
9/5/2012,5:48,210,82.6342388,-163.5321373,-1.5,28.568,7.719,1888.6
9/5/2012,6:45,211,82.6174862,-164.1566227,-1.503,28.596,7.72,1960.3
9/5/2012,7:45,212,82.6008903,-164.8006805,-1.501,28.602,7.718,1998.4
9/5/2012,8:45,213,82.5803377,-165.3204427,-1.5,28.625,-999,1951.2
9/5/2012,9:45,214,82.5625617,-166.0071997,-1.495,28.578,-999,1888.3
9/5/2012,10:45,215,82.5367848,-166.7809903,-1.488,28.444,7.711,1888.9
9/5/2012,11:45,216,82.5096087,-167.5206732,-1.491,28.456,7.713,-999
9/5/2012,12:44,217,82.4869243,-168.2687238,-1.491,28.45,7.712,1911.8
9/5/2012,13:45,218,82.4554032,-169.0228267,-1.493,28.52,7.715,1880.7
9/5/2012,14:45,219,82.4245352,-169.7845868,-1.492,28.537,7.715,-999
9/5/2012,15:45,220,82.3898197,-170.556747,-1.489,28.554,7.711,1882.2
9/5/2012,16:45,221,82.3577332,-171.2805585,-1.48,28.42,7.694,1877.8
9/5/2012,17:45,222,82.3506965,-171.2701208,-1.483,28.46,7.697,1883.2
9/5/2012,18:45,223,82.2675268,-171.1070182,-1.482,28.424,7.695,-999
9/5/2012,19:45,224,82.1755155,-170.9803855,-1.487,28.483,7.7,1881.8
9/5/2012,20:46,225,82.0807007,-170.8673327,-1.477,28.464,7.697,1873.9
9/5/2012,21:47,226,81.9861167,-170.7498417,-1.469,28.427,7.699,1908.5
9/5/2012,22:45,227,81.8959335,-170.645809,-1.467,28.417,7.698,1930.9
9/5/2012,23:45,228,81.8827355,-170.1062833,-1.448,28.386,7.696,1849.5
9/6/2012,0:45,229,81.8855817,-169.4261067,-1.454,28.377,7.696,1880.2
9/6/2012,1:45,230,81.8856155,-168.7548633,-1.463,28.405,7.695,1899.4
9/6/2012,2:45,231,81.8854462,-168.0111567,-1.468,28.412,7.704,1904.8
9/6/2012,3:45,232,81.8943955,-167.315859,-1.468,28.425,7.702,1949
9/6/2012,4:45,233,81.8805855,-166.6294375,-1.464,28.39,7.693,1861
9/6/2012,5:46,234,81.8747132,-165.836471,-1.473,28.383,7.692,1868.4
9/6/2012,6:45,235,81.8701783,-164.9794562,-1.472,28.418,7.702,1882.5
9/6/2012,7:45,236,81.8621013,-164.2562622,-1.471,28.347,7.698,1978.7
9/6/2012,8:45,237,81.8548588,-163.5708652,-1.477,28.302,7.704,1855.9
9/6/2012,9:45,238,81.8457715,-162.8879602,-1.477,28.28,7.701,-999
9/6/2012,10:45,239,81.8352672,-162.2024195,-1.477,28.235,7.702,1894.8
9/6/2012,11:45,240,81.7809278,-161.998163,-1.483,28.226,7.703,1899
9/6/2012,12:45,241,81.6790248,-162.4077073,-1.5,28.193,7.692,1859.4
9/6/2012,13:45,242,81.5831683,-162.7688115,-1.494,28.27,7.701,1865.7
9/6/2012,14:45,243,81.495671,-163.0956648,-1.503,28.324,7.699,1867.2
9/6/2012,15:45,244,81.401001,-163.4344545,-1.501,28.387,7.691,1865.6
9/6/2012,16:45,245,81.3014677,-163.7923683,-1.469,28.403,-999,1873.4
9/6/2012,17:45,246,81.2017283,-164.1366432,-1.493,28.42,7.684,-999
9/6/2012,18:46,247,81.0540025,-164.6313073,-1.344,28.427,7.675,1863.7
9/6/2012,19:46,248,80.9099738,-165.0956293,-1.202,28.387,-999,1978.4
9/6/2012,20:45,249,80.7723182,-165.5246863,-1.223,28.385,-999,-999
9/6/2012,21:46,250,80.587358,-165.8551715,-1.063,27.972,7.663,1962.4
9/6/2012,22:45,251,80.3880418,-165.6883515,-1.069,27.941,-999,1874.5
9/6/2012,23:45,252,80.18295,-165.5233935,-1.061,27.776,7.659,2000.1
9/7/2012,0:45,253,79.9853373,-165.3703747,-1.012,27.568,-999,1860.3
9/7/2012,1:45,254,79.799886,-165.2328572,-0.958,27.559,7.654,1841.7
9/7/2012,2:45,255,79.6121063,-165.0983108,-0.917,27.387,7.653,1905.9
9/7/2012,3:45,256,79.4233632,-164.9332547,-0.876,27.381,7.654,1857.8
9/7/2012,4:45,257,79.2367868,-164.6857273,-0.849,27.05,7.651,1839.4
9/7/2012,5:45,258,79.0497087,-164.4461773,-0.756,27.053,-999,1854.2
9/7/2012,6:45,259,78.8695337,-164.2470145,-0.767,27.416,7.653,1858.3
9/7/2012,7:48,260,78.9788512,-164.1480158,-0.723,27.289,-999,1857.2
9/7/2012,8:47,261,79.1530208,-163.969566,-0.783,27.133,7.648,1868.9
9/7/2012,9:46,262,79.3355603,-163.7971995,-0.792,27.157,-999,1837.4
9/7/2012,10:45,263,79.5202958,-163.5962557,-0.859,27.186,7.651,1842.2
9/7/2012,11:45,264,79.7097608,-163.382634,-0.936,27.432,7.655,1848.9
9/7/2012,12:45,265,79.892872,-163.168404,-1.03,28.068,7.663,1878.5
9/7/2012,13:45,266,80.0758677,-162.9461423,-1.037,28.358,7.668,1896.3
9/7/2012,14:45,267,80.260062,-162.7142837,-1.059,28.581,-999,1978.4
9/7/2012,15:45,268,80.389001,-162.542703,-1.155,28.59,7.676,1925
9/7/2012,16:45,269,80.4914628,-162.4077028,-1.252,28.585,-999,1912.9
9/7/2012,17:45,270,80.6312005,-162.21991,-1.277,28.646,7.679,1922
9/7/2012,18:46,271,80.7737597,-162.018011,-1.412,28.619,7.68,1924.5
9/7/2012,19:45,272,80.8855993,-161.8555883,-1.263,28.53,7.674,1916.9
9/7/2012,20:45,273,80.994727,-161.6930077,-1.295,28.539,7.676,1945.6
9/7/2012,21:45,274,81.10189,-161.5302268,-1.437,28.572,7.68,1901
9/7/2012,22:45,275,81.1965597,-161.3829262,-1.479,28.483,7.686,1916.5
9/7/2012,23:45,276,81.2996452,-161.2187378,-1.483,28.419,-999,-999
9/8/2012,0:45,277,81.3969242,-161.0654378,-1.501,28.435,-999,-999
9/8/2012,1:45,278,81.490596,-160.8626038,-1.477,28.315,7.683,-999
9/8/2012,2:45,279,81.4892813,-160.2112283,-1.501,28.435,7.688,1912.2
9/8/2012,3:45,280,81.446538,-159.805423,-1.485,28.446,7.688,1932.8
9/8/2012,4:45,281,81.3373132,-160.0186507,-1.488,28.436,7.69,1937.2
9/8/2012,5:46,282,81.2225852,-160.169873,-1.489,28.43,7.689,2023
9/8/2012,6:46,283,81.102391,-160.3277675,-1.488,28.452,7.687,1945.9
9/8/2012,7:45,284,80.9824488,-160.4827023,-1.481,28.466,7.682,1915.5
9/8/2012,8:45,285,80.8403113,-160.6604998,-1.454,28.506,7.68,1917
9/8/2012,9:46,286,80.6581672,-160.8806697,-1.448,28.54,7.68,1946.1
9/8/2012,10:45,287,80.4752563,-161.0929718,-1.316,28.524,7.679,-999
9/8/2012,11:45,288,80.3634203,-161.2189947,-1.195,28.602,7.677,2040.3
9/8/2012,12:45,289,80.2539207,-161.3395657,-1.176,28.583,7.677,2036.3
9/8/2012,13:45,290,80.0722077,-161.533355,-1.079,28.372,7.667,1901.3
9/8/2012,14:45,291,79.8679208,-161.7430813,-1.032,28.141,-999,1890.9
9/8/2012,15:45,292,79.6636258,-161.9442535,-0.974,28.058,7.662,1900.7
9/8/2012,16:45,293,79.4576302,-162.1395018,-0.904,27.464,7.653,1989.4
9/8/2012,17:45,294,79.252562,-162.3358653,-0.892,27.328,7.652,1858.5
9/8/2012,18:45,295,79.0476712,-162.5056023,-0.86,27.616,7.653,1879.7
9/8/2012,19:45,296,78.9013027,-162.2083055,-0.626,27.083,7.647,-999
9/8/2012,20:45,297,79.0054107,-161.8093715,-0.782,27.216,7.648,1988.4
9/8/2012,21:45,298,79.2151472,-161.4907937,-0.825,27.504,7.651,1867.4
9/8/2012,22:45,299,79.4381802,-161.1387593,-0.915,27.624,7.657,1876.9
9/9/2012,23:45,300,79.8537562,-159.8972698,-1.069,28.168,7.659,1904.8
9/9/2012,0:45,301,79.7881898,-160.5556737,-1.013,28.183,7.662,-999
9/9/2012,1:45,302,79.9525733,-160.267462,-1.048,28.344,7.664,2024.8
9/9/2012,2:45,303,80.1162407,-159.9690927,-1.144,28.481,-999,2038
9/9/2012,3:45,304,80.2842428,-159.7279692,-1.118,28.465,7.67,-999
9/9/2012,4:46,305,80.4572902,-159.5516273,-1.241,28.618,7.677,1928.1
9/9/2012,5:45,306,80.6082898,-159.3404628,-1.33,28.563,7.672,1928.8
9/9/2012,6:45,307,80.7221415,-159.1659878,-1.305,28.568,7.675,1935.7
9/9/2012,7:45,308,80.8393905,-159.0442533,-1.374,28.569,7.673,1932.3
9/9/2012,8:45,309,80.9729287,-158.8219398,-1.427,28.553,7.674,1914.5
9/9/2012,9:45,310,81.0799138,-158.6718622,-1.476,28.511,-999,1923.2
9/9/2012,10:45,311,81.1784272,-158.5266497,-1.48,28.517,7.682,1931.4
9/9/2012,11:45,312,81.273905,-158.3832242,-1.474,28.39,7.679,1950.2
9/9/2012,12:45,313,81.3582905,-158.2688015,-1.481,28.315,7.678,1909.4
9/9/2012,13:45,314,81.3843725,-157.7812093,-1.5,28.194,7.678,1893
9/9/2012,14:45,315,81.3040137,-157.4688127,-1.479,28.351,7.676,1913.5
9/9/2012,15:46,316,81.2023112,-157.632959,-1.478,28.453,7.677,1932.5
9/9/2012,16:45,317,81.1062873,-157.7841913,-1.483,28.491,-999,1914.2
9/9/2012,17:45,318,80.976891,-157.98319,-1.455,28.52,7.673,1915.4
9/9/2012,18:46,319,80.7920142,-158.2589337,-1.372,28.524,7.671,1913.8
9/9/2012,19:45,320,80.6140513,-158.512625,-1.357,28.526,7.67,1922.3
9/9/2012,20:46,321,80.408152,-158.7948402,-1.3,28.577,7.673,1967.2
9/9/2012,21:45,322,80.2401072,-159.0160695,-1.205,28.53,-999,1925
9/9/2012,22:45,323,80.0462405,-159.438189,-1.188,28.473,7.671,1925.7
9/9/2012,23:45,324,79.8537562,-159.8972698,-1.069,28.168,-999,1903.9
9/10/2012, 0:45,325,79.6604752,-160.344544,-1.012,28.186,7.656,1890.1
9/10/2012, 1:45,326,79.4660823,-160.7734097,-0.975,27.848,7.657,1889
9/10/2012, 2:45,327,79.2713107,-161.1765108,-0.916,27.645,7.652,1874.2
9/10/2012, 3:45,328,79.0741882,-161.487346,-0.879,27.498,7.653,1886.4
9/10/2012, 4:45,329,79.1129785,-160.5483027,-0.812,27.622,-999,1882.1
9/10/2012, 5:45,330,79.2945628,-160.1539298,-0.897,27.378,7.65,1869.8
9/10/2012, 6:45,331,79.4722713,-159.707815,-0.826,27.616,7.645,-999
9/10/2012, 7:45,332,79.6516093,-159.2403578,-0.914,27.205,7.647,1884.2
9/10/2012, 9:45,334,80.0123208,-158.2441992,-1.136,28.399,7.648,1919.8
9/10/2012, 10:45,335,80.1495587,-157.8366662,-1.299,28.548,7.67,1920.5
9/10/2012, 11:45,336,80.3235972,-158.0121207,-1.287,28.587,7.673,1927.1
9/10/2012, 12:45,337,80.5045907,-157.9778897,-1.363,28.542,7.67,1937.9
9/10/2012, 13:45,338,80.6893245,-157.5102343,-1.406,28.356,7.669,1900.4
9/10/2012, 14:45,339,80.8102747,-157.4034678,-1.427,28.453,7.67,1909.9
9/10/2012, 15:45,340,80.9164162,-157.5640055,-1.44,28.512,7.672,-999
9/10/2012, 16:45,341,80.9253727,-158.1720377,-1.474,28.536,7.673,1922.2
9/10/2012, 17:45,342,80.9121828,-158.8471793,-1.468,28.553,7.671,1920.4
9/10/2012, 18:45,343,80.9082047,-159.27874,-1.483,28.543,7.675,1933.1
9/10/2012, 19:45,344,80.894117,-159.8779182,-1.486,28.536,-999,1910.5
9/10/2012, 20:47,345,80.8817435,-160.4603188,-1.491,28.517,7.68,1914.2
9/10/2012, 21:45,346,80.8684333,-161.0467127,-1.48,28.563,7.679,1933.9
9/10/2012, 22:45,347,80.8529082,-161.6858347,-1.448,28.409,7.671,1943.5
9/10/2012, 23:45,348,80.834433,-162.3676463,-1.445,28.441,-999,1897.2
9/11/2012, 0:45,349,80.8144162,-163.0109818,-1.443,28.542,7.672,1934.9
9/11/2012, 1:45,350,80.7936225,-163.746641,-1.331,28.582,7.672,1981.9
9/11/2012, 2:45,351,80.7688345,-164.5019645,-1.214,28.111,7.659,1905.4
9/11/2012, 3:45,352,80.7341993,-165.4794832,-1.271,28.054,7.661,1901.2
9/11/2012, 4:45,353,80.6943018,-166.5140515,-1.231,28.254,7.663,1903.4
9/11/2012, 5:45,354,80.6491622,-167.541477,-1.271,28.384,7.667,1930.5
9/11/2012, 6:45,355,80.6038488,-168.72239,-1.259,28.558,7.675,-999
9/11/2012, 7:45,356,80.5424218,-169.8614357,-1.288,28.255,7.665,1905.3
9/11/2012, 8:45,357,80.480139,-171.0251043,-1.303,28.351,7.671,1929.9